Location: Unspecified
(0.0000°N, 0.0000°E)
Time: 17:27:39

SRMSAT - Pass Details

Date: 16 December 2017
Orbit: 849 x 866 km, 20.0° (Epoch: 19 March)

Event Time Altitude Azimuth Distance (km) Brightness Sun altitude
Exits shadow 05:09:24 12° 312° (NW) 2,353 ? -10.6°
Maximum altitude 05:12:34 17° 346° (NNW) 2,022 ? -9.9°
Drops below altitude 10° 05:16:21 10° 26° (NNE) 2,484 ? -9.0°
Sets 05:19:52 0° 46° (NE) 3,422 ? -8.2°
